| time (UTC) | temp C | wind direction | speed KPH | gust KPH | rain 1hr cm | rain 24hr cm | rain mn cm | humidity % | barometer mb |
| 20260507044543 | 8 | 275 | 0.0 | 0.0 | 0.00 | 0.00 | 0.00 | 93 | 1012.4 |
| 20260507043037 | 8 | 275 | 0.0 | 0.0 | 0.00 | 0.00 | 0.00 | 93 | 1012.4 |
| 20260507041531 | 8 | 275 | 0.0 | 0.0 | 0.00 | 0.00 | 0.00 | 93 | 1012.2 |
| 20260507040029 | 8 | 275 | 0.0 | 0.0 | 0.00 | 0.00 | 0.00 | 93 | 1012.2 |
| 20260507034529 | 8 | 275 | 0.0 | 4.8 | 0.00 | 0.00 | 0.00 | 93 | 1012.1 |
| 20260507033027 | 8 | 275 | 0.0 | 1.6 | 0.00 | 0.00 | 0.00 | 93 | 1012.1 |
| 20260507031526 | 9 | 275 | 0.0 | 3.2 | 0.00 | 0.00 | 0.00 | 93 | 1012.0 |
| 20260507030025 | 8 | 275 | 0.0 | 3.2 | 0.00 | 0.00 | 0.00 | 93 | 1012.0 |
| 20260507024528 | 8 | 275 | 0.0 | 3.2 | 0.00 | 0.00 | 0.00 | 93 | 1012.0 |
| 20260507023023 | 8 | 275 | 0.0 | 1.6 | 0.00 | 0.00 | 0.00 | 93 | 1011.9 |
| 20260507021524 | 9 | 275 | 0.0 | 4.8 | 0.00 | 0.00 | 0.00 | 93 | 1011.8 |
| 20260507020022 | 9 | 275 | 0.0 | 6.4 | 0.00 | 0.00 | 0.00 | 93 | 1011.7 |
| 20260507014519 | 9 | 275 | 0.0 | 0.0 | 0.00 | 0.00 | 0.00 | 93 | 1011.6 |
| 20260507013017 | 9 | 275 | 0.0 | 1.6 | 0.00 | 0.00 | 0.00 | 92 | 1011.5 |
| 20260507011514 | -17 | 0.0 | 0.0 | 0.00 | 0.00 | 0.00 | 1011.5 | ||
| 20260507010011 | 9 | 275 | 0.0 | 3.2 | 0.00 | 0.00 | 0.00 | 92 | 1011.4 |
| 20260507004510 | 9 | 275 | 0.0 | 4.8 | 0.00 | 0.00 | 0.00 | 92 | 1011.3 |
| 20260507003010 | 9 | 275 | 0.0 | 4.8 | 0.00 | 0.00 | 0.00 | 92 | 1011.3 |
| 20260507001513 | 9 | 275 | 0.0 | 4.8 | 0.00 | 0.00 | 0.00 | 92 | 1011.3 |
| 20260507000007 | 9 | 275 | 0.0 | 0.0 | 0.00 | 0.00 | 0.00 | 92 | 1011.2 |
| 20260506234507 | 9 | 275 | 0.0 | 1.6 | 0.00 | 0.00 | 0.00 | 92 | 1011.2 |
| 20260506233004 | 9 | 275 | 0.0 | 3.2 | 0.00 | 0.00 | 0.00 | 92 | 1011.2 |
| 20260506231502 | 9 | 275 | 0.0 | 0.0 | 0.00 | 0.00 | 0.00 | 92 | 1011.2 |
| 20260506230001 | 9 | 275 | 0.0 | 4.8 | 0.00 | 0.00 | 0.00 | 92 | 1011.1 |
| 20260506224600 | 9 | 275 | 0.0 | 9.7 | 0.00 | 0.00 | 0.00 | 92 | 1011.0 |
| 20260506223057 | 9 | 279 | 3.2 | 11.3 | 0.00 | 0.00 | 0.00 | 92 | 1010.9 |
| 20260506221556 | 9 | 292 | 1.6 | 6.4 | 0.00 | 0.00 | 0.00 | 92 | 1010.9 |
| 20260506220054 | 9 | 292 | 0.0 | 4.8 | 0.00 | 0.00 | 0.00 | 92 | 1010.8 |
| 20260506214552 | 9 | 294 | 0.0 | 8.0 | 0.00 | 0.00 | 0.00 | 92 | 1010.7 |
| 20260506213050 | 9 | 294 | 0.0 | 6.4 | 0.00 | 0.00 | 0.00 | 92 | 1010.6 |
| 20260506211550 | 9 | 294 | 0.0 | 4.8 | 0.00 | 0.00 | 0.00 | 92 | 1010.5 |
| 20260506210051 | 9 | 294 | 0.0 | 4.8 | 0.00 | 0.00 | 0.00 | 92 | 1010.5 |
| 20260506204548 | 9 | 294 | 0.0 | 3.2 | 0.00 | 0.00 | 0.00 | 92 | 1010.5 |
| 20260506203051 | 9 | 294 | 0.0 | 3.2 | 0.00 | 0.00 | 0.00 | 92 | 1010.4 |
| 20260506201606 | 9 | 294 | 0.0 | 3.2 | 0.00 | 0.00 | 0.00 | 92 | 1010.3 |
| 20260506200044 | 9 | 294 | 0.0 | 0.0 | 0.00 | 0.00 | 0.00 | 92 | 1010.1 |
| 20260506194550 | 9 | 294 | 0.0 | 0.0 | 0.00 | 0.00 | 0.00 | 92 | 1009.9 |
| 20260506193044 | 9 | 294 | 0.0 | 0.0 | 0.00 | 0.00 | 0.00 | 92 | 1009.6 |
| 20260506191542 | 10 | 294 | 0.0 | 3.2 | 0.00 | 0.00 | 0.00 | 92 | 1009.5 |
| 20260506190037 | 9 | 294 | 0.0 | 4.8 | 0.00 | 0.00 | 0.00 | 92 | 1009.4 |
| 20260506184546 | 9 | 294 | 0.0 | 3.2 | 0.00 | 0.00 | 0.00 | 92 | 1009.3 |
| 20260506183039 | 10 | 294 | 0.0 | 11.3 | 0.00 | 0.00 | 0.00 | 92 | 1009.1 |
| 20260506181532 | 10 | 292 | 1.6 | 8.0 | 0.00 | 0.00 | 0.00 | 92 | 1008.9 |
| 20260506180032 | 10 | 293 | 0.0 | 8.0 | 0.00 | 0.00 | 0.00 | 92 | 1008.8 |
| 20260506174530 | 10 | 292 | 1.6 | 8.0 | 0.00 | 0.00 | 0.00 | 91 | 1008.7 |
| 20260506173028 | 10 | 293 | 0.0 | 4.8 | 0.00 | 0.00 | 0.00 | 91 | 1008.5 |
| 20260506171535 | 10 | 293 | 1.6 | 12.9 | 0.00 | 0.00 | 0.00 | 91 | 1008.4 |
| 20260506170024 | 10 | 288 | 4.8 | 19.3 | 0.00 | 0.00 | 0.00 | 91 | 1008.2 |
| 20260506164525 | 10 | 284 | 4.8 | 12.9 | 0.00 | 0.00 | 0.00 | 91 | 1008.2 |
| 20260506163037 | 10 | 284 | 4.8 | 14.5 | 0.00 | 0.00 | 0.00 | 91 | 1008.1 |
| 20260506161522 | 10 | 298 | 3.2 | 11.3 | 0.00 | 0.00 | 0.00 | 90 | 1008.1 |
| 20260506160023 | 10 | 292 | 4.8 | 17.7 | 0.00 | 0.00 | 0.00 | 90 | 1008.0 |
| 20260506154524 | 10 | 281 | 1.6 | 16.1 | 0.00 | 0.00 | 0.00 | 91 | 1007.9 |
| 20260506153016 | 10 | 290 | 1.6 | 14.5 | 0.00 | 0.00 | 0.00 | 91 | 1007.8 |
| 20260506151515 | 10 | 284 | 3.2 | 11.3 | 0.00 | 0.00 | 0.00 | 91 | 1007.7 |
| 20260506150015 | 10 | 285 | 4.8 | 14.5 | 0.00 | 0.00 | 0.00 | 91 | 1007.6 |
| 20260506144516 | 10 | 302 | 8.0 | 19.3 | 0.00 | 0.00 | 0.00 | 91 | 1007.7 |
| 20260506143016 | 10 | 307 | 8.0 | 19.3 | 0.00 | 0.00 | 0.00 | 91 | 1007.5 |
| 20260506141510 | 10 | 303 | 8.0 | 20.9 | 0.00 | 0.00 | 0.00 | 91 | 1007.5 |
| 20260506140008 | 10 | 281 | 9.7 | 17.7 | 0.00 | 0.00 | 0.00 | 91 | 1007.4 |
| 20260506134507 | 10 | 306 | 11.3 | 19.3 | 0.00 | 0.00 | 0.00 | 91 | 1007.4 |
| 20260506133006 | 10 | 294 | 9.7 | 17.7 | 0.00 | 0.00 | 0.00 | 91 | 1007.3 |
| 20260506131503 | 10 | 304 | 11.3 | 19.3 | 0.00 | 0.00 | 0.00 | 91 | 1007.2 |
| 20260506130106 | 11 | 284 | 3.2 | 14.5 | 0.00 | 0.00 | 0.00 | 91 | 1007.2 |
| 20260506124600 | 11 | 282 | 4.8 | 17.7 | 0.00 | 0.00 | 0.00 | 90 | 1007.1 |
| 20260506123055 | 11 | 279 | 9.7 | 19.3 | 0.00 | 0.00 | 0.00 | 89 | 1006.8 |
| 20260506121603 | 11 | 294 | 8.0 | 16.1 | 0.00 | 0.00 | 0.00 | 91 | 1006.7 |
| 20260506120108 | 11 | 303 | 9.7 | 16.1 | 0.00 | 0.00 | 0.00 | 90 | 1006.6 |
| 20260506114608 | 11 | 294 | 1.6 | 16.1 | 0.00 | 0.00 | 0.00 | 90 | 1006.6 |
| 20260506113052 | 11 | 288 | 6.4 | 16.1 | 0.00 | 0.00 | 0.00 | 91 | 1006.5 |
| 20260506111553 | 11 | 291 | 1.6 | 12.9 | 0.00 | 0.00 | 0.00 | 92 | 1006.4 |
| 20260506110049 | 11 | 284 | 4.8 | 16.1 | 0.00 | 0.00 | 0.00 | 91 | 1006.4 |
| 20260506104548 | 12 | 296 | 6.4 | 12.9 | 0.00 | 0.00 | 0.00 | 90 | 1006.3 |
| 20260506103048 | 12 | 288 | 3.2 | 16.1 | 0.00 | 0.00 | 0.00 | 88 | 1006.3 |
| 20260506101547 | 12 | 314 | 4.8 | 14.5 | 0.00 | 0.00 | 0.00 | 86 | 1005.9 |
| 20260506100049 | 12 | 295 | 1.6 | 11.3 | 0.00 | 0.00 | 0.00 | 85 | 1005.7 |
| 20260506094547 | 12 | 290 | 1.6 | 11.3 | 0.00 | 0.03 | 0.00 | 87 | 1005.7 |
| 20260506093105 | 12 | 288 | 3.2 | 14.5 | 0.00 | 0.03 | 0.00 | 83 | 1005.7 |
| 20260506091547 | 13 | 297 | 6.4 | 16.1 | 0.00 | 0.03 | 0.00 | 82 | 1005.5 |
| 20260506090046 | 13 | 313 | 8.0 | 19.3 | 0.00 | 0.03 | 0.00 | 80 | 1005.4 |
| 20260506084543 | 13 | 277 | 4.8 | 12.9 | 0.00 | 0.03 | 0.00 | 79 | 1005.2 |
| 20260506083043 | 13 | 274 | 1.6 | 14.5 | 0.00 | 0.03 | 0.00 | 79 | 1005.1 |
| 20260506081538 | 13 | 288 | 1.6 | 11.3 | 0.00 | 0.03 | 0.00 | 80 | 1005.1 |
| 20260506073033 | 12 | 192 | 0.0 | 11.3 | 0.00 | 0.03 | 0.00 | 82 | 1005.3 |
| 20260506071529 | 12 | 185 | 8.0 | 17.7 | 0.00 | 0.03 | 0.00 | 83 | 1005.1 |
| 20260506061519 | 11 | 153 | 0.0 | 4.8 | 0.00 | 0.03 | 0.00 | 90 | 1005.1 |